• In Colombia
  • List of Countries
  • For 7 days
  • Water Temperature
  • Weather Map
  • Weather Widgets
  • user-avatar
    Login

    Hourly Weather Algiers

    Today, 13 December, Friday

    Time Temperature Precipitation Wind Pressure Humidity
    00:00 +11°C° 0 mm 10 mps 747 mmHg 73%
    01:00 +11°C° 0 mm 10 mps 747 mmHg 73%
    02:00 +11°C° 0 mm 9 mps 747 mmHg 73%
    03:00 +11°C° 0 mm 9 mps 746 mmHg 72%
    04:00 +12°C° 0 mm 9 mps 746 mmHg 72%
    05:00 +12°C° 0 mm 10 mps 746 mmHg 72%
    06:00 +13°C° 0 mm 10 mps 746 mmHg 72%
    07:00 +14°C° 0 mm 10 mps 746 mmHg 70%
    08:00 +14°C° 0 mm 10 mps 746 mmHg 69%
    09:00 +16°C° 0 mm 10 mps 746 mmHg 68%
    10:00 +17°C° 0 mm 11 mps 746 mmHg 67%
    11:00 +17°C° 0 mm 13 mps 746 mmHg 65%
    12:00 +18°C° 0 mm 14 mps 746 mmHg 64%
    13:00 +18°C° 0 mm 14 mps 746 mmHg 64%
    14:00 +18°C° 0 mm 13 mps 746 mmHg 65%
    15:00 +17°C° 0 mm 13 mps 746 mmHg 66%
    16:00 +17°C° 0 mm 12 mps 746 mmHg 66%
    17:00 +15°C° 0 mm 12 mps 747 mmHg 67%
    18:00 +16°C° 0 mm 11 mps 747 mmHg 67%
    19:00 +16°C° 0 mm 11 mps 748 mmHg 68%
    20:00 +14°C° 0 mm 11 mps 748 mmHg 68%
    21:00 +14°C° 0 mm 11 mps 748 mmHg 69%
    22:00 +14°C° 0 mm 10 mps 749 mmHg 69%
    23:00 +15°C° 0 mm 9 mps 749 mmHg 69%

    Tomorrow, 14 December, Saturday

    Time Temperature Precipitation Wind Pressure Humidity
    00:00 +15°C° 0 mm 9 mps 749 mmHg 70%
    01:00 +13°C° 0 mm 8 mps 749 mmHg 71%
    02:00 +14°C° 0 mm 7 mps 749 mmHg 73%
    03:00 +14°C° 0 mm 7 mps 749 mmHg 74%
    04:00 +14°C° 0 mm 6 mps 749 mmHg 73%
    05:00 +14°C° 0 mm 6 mps 750 mmHg 72%
    06:00 +14°C° 0 mm 6 mps 750 mmHg 72%
    07:00 +14°C° 0 mm 5 mps 750 mmHg 70%
    08:00 +15°C° 0 mm 4 mps 751 mmHg 68%
    09:00 +17°C° 0 mm 4 mps 751 mmHg 65%
    10:00 +17°C° 0 mm 4 mps 751 mmHg 62%
    11:00 +18°C° 0 mm 4 mps 751 mmHg 59%
    12:00 +19°C° 0 mm 4 mps 751 mmHg 55%
    13:00 +19°C° 0 mm 4 mps 751 mmHg 58%
    14:00 +18°C° 0 mm 3 mps 751 mmHg 62%
    15:00 +18°C° 0 mm 3 mps 750 mmHg 65%
    16:00 +17°C° 0 mm 2 mps 751 mmHg 69%
    17:00 +16°C° 0 mm 2 mps 751 mmHg 74%
    18:00 +15°C° 0 mm 2 mps 751 mmHg 78%
    19:00 +15°C° 0 mm 2 mps 751 mmHg 76%
    20:00 +15°C° 0 mm 2 mps 751 mmHg 75%
    21:00 +15°C° 0 mm 1 mps 751 mmHg 73%
    22:00 +15°C° 0 mm 1 mps 751 mmHg 73%
    23:00 +15°C° 0 mm 1 mps 751 mmHg 72%

    Day after tomorrow, 15 December, Sunday

    Time Temperature Precipitation Wind Pressure Humidity
    00:00 +15°C° 0 mm 1 mps 751 mmHg 72%
    01:00 +15°C° 0 mm 1 mps 751 mmHg 71%
    02:00 +15°C° 0 mm 1 mps 750 mmHg 71%
    03:00 +14°C° 0 mm 1 mps 750 mmHg 70%
    04:00 +14°C° 0 mm 1 mps 750 mmHg 69%
    05:00 +14°C° 0 mm 1 mps 750 mmHg 68%
    06:00 +14°C° 0 mm 1 mps 750 mmHg 67%
    07:00 +15°C° 0 mm 1 mps 750 mmHg 63%
    08:00 +16°C° 0 mm 1 mps 751 mmHg 60%
    09:00 +16°C° 0 mm 2 mps 751 mmHg 57%
    10:00 +19°C° 0 mm 1 mps 751 mmHg 53%
    11:00 +20°C° 0 mm 1 mps 751 mmHg 49%
    12:00 +21°C° 0 mm 1 mps 750 mmHg 44%
    13:00 +21°C° 0 mm 1 mps 750 mmHg 46%
    14:00 +20°C° 0 mm 2 mps 749 mmHg 47%
    15:00 +20°C° 0 mm 2 mps 749 mmHg 48%
    16:00 +19°C° 0 mm 2 mps 749 mmHg 52%
    17:00 +18°C° 0 mm 3 mps 749 mmHg 56%
    18:00 +17°C° 0 mm 3 mps 749 mmHg 59%
    19:00 +17°C° 0 mm 3 mps 749 mmHg 59%
    20:00 +16°C° 0 mm 3 mps 749 mmHg 59%
    21:00 +16°C° 0 mm 3 mps 749 mmHg 58%
    22:00 +16°C° 0 mm 3 mps 749 mmHg 57%
    23:00 +15°C° 0 mm 4 mps 748 mmHg 57%

    16 December, Monday

    Time Temperature Precipitation Wind Pressure Humidity
    00:00 +15°C° 0 mm 4 mps 748 mmHg 56%
    01:00 +15°C° 0 mm 5 mps 748 mmHg 56%
    02:00 +15°C° 0 mm 5 mps 747 mmHg 55%
    03:00 +15°C° 0 mm 6 mps 747 mmHg 55%
    04:00 +15°C° 0 mm 6 mps 747 mmHg 55%
    05:00 +15°C° 0 mm 7 mps 747 mmHg 55%
    06:00 +15°C° 0 mm 7 mps 746 mmHg 55%
    07:00 +15°C° 0 mm 7 mps 746 mmHg 54%
    08:00 +16°C° 0 mm 7 mps 746 mmHg 52%
    09:00 +16°C° 0 mm 8 mps 746 mmHg 51%
    10:00 +17°C° 0 mm 8 mps 746 mmHg 47%
    11:00 +18°C° 0 mm 8 mps 745 mmHg 44%
    12:00 +20°C° 0 mm 8 mps 745 mmHg 41%
    13:00 +20°C° 0 mm 8 mps 744 mmHg 41%
    14:00 +20°C° 0 mm 7 mps 744 mmHg 42%
    15:00 +20°C° 0 mm 7 mps 743 mmHg 42%
    16:00 +18°C° 0 mm 7 mps 743 mmHg 44%
    17:00 +18°C° 0 mm 8 mps 743 mmHg 46%
    18:00 +17°C° 0 mm 8 mps 743 mmHg 47%
    19:00 +17°C° 0 mm 8 mps 743 mmHg 49%
    20:00 +17°C° 0 mm 9 mps 743 mmHg 50%
    21:00 +16°C° 0 mm 9 mps 743 mmHg 51%
    22:00 +16°C° 0 mm 9 mps 742 mmHg 53%
    23:00 +16°C° 0 mm 9 mps 742 mmHg 54%

    17 December, Tuesday

    Time Temperature Precipitation Wind Pressure Humidity
    00:00 +15°C° 0 mm 9 mps 742 mmHg 55%
    01:00 +15°C° 0 mm 9 mps 742 mmHg 55%
    02:00 +15°C° 0 mm 9 mps 741 mmHg 55%
    03:00 +15°C° 0 mm 9 mps 741 mmHg 54%
    04:00 +15°C° 0 mm 8 mps 741 mmHg 55%
    05:00 +13°C° 0 mm 8 mps 741 mmHg 56%
    06:00 +14°C° 0 mm 7 mps 741 mmHg 57%
    07:00 +14°C° 0 mm 6 mps 740 mmHg 59%
    08:00 +15°C° 0 mm 4 mps 740 mmHg 61%
    09:00 +16°C° 0 mm 3 mps 740 mmHg 63%
    10:00 +15°C° 0 mm 4 mps 740 mmHg 67%
    11:00 +14°C° 0 mm 5 mps 739 mmHg 70%
    12:00 +14°C° 0 mm 6 mps 739 mmHg 74%
    13:00 +13°C° 1.4 mm 6 mps 739 mmHg 78%
    14:00 +12°C° 1.4 mm 5 mps 739 mmHg 82%
    15:00 +10°C° 1.4 mm 5 mps 739 mmHg 87%
    16:00 +10°C° 3.6 mm 6 mps 740 mmHg 84%
    17:00 +10°C° 3.6 mm 6 mps 740 mmHg 82%
    18:00 +9°C° 3.6 mm 7 mps 741 mmHg 80%
    19:00 +10°C° 0.5 mm 6 mps 742 mmHg 76%
    20:00 +10°C° 0.5 mm 5 mps 742 mmHg 72%
    21:00 +11°C° 0.5 mm 4 mps 743 mmHg 68%
    22:00 +10°C° 0 mm 5 mps 743 mmHg 69%
    23:00 +10°C° 0 mm 5 mps 742 mmHg 70%

    18 December, Wednesday

    Time Temperature Precipitation Wind Pressure Humidity
    00:00 +10°C° 0 mm 5 mps 742 mmHg 70%
    01:00 +10°C° 0.3 mm 6 mps 742 mmHg 73%
    02:00 +10°C° 0.3 mm 7 mps 743 mmHg 75%
    03:00 +10°C° 0.3 mm 7 mps 743 mmHg 77%
    04:00 +10°C° 0.2 mm 8 mps 743 mmHg 76%
    05:00 +10°C° 0.2 mm 9 mps 743 mmHg 76%
    06:00 +10°C° 0.2 mm 9 mps 743 mmHg 75%
    07:00 +10°C° 0.2 mm 9 mps 744 mmHg 73%
    08:00 +11°C° 0.2 mm 9 mps 744 mmHg 71%
    09:00 +11°C° 0.2 mm 9 mps 745 mmHg 68%
    10:00 +12°C° 0.2 mm 11 mps 745 mmHg 66%
    11:00 +12°C° 0.2 mm 12 mps 745 mmHg 64%
    12:00 +13°C° 0.2 mm 13 mps 745 mmHg 61%
    13:00 +13°C° 0.1 mm 13 mps 746 mmHg 62%
    14:00 +12°C° 0.1 mm 13 mps 746 mmHg 63%
    15:00 +12°C° 0.1 mm 13 mps 746 mmHg 64%
    16:00 +12°C° 0 mm 12 mps 746 mmHg 66%
    17:00 +11°C° 0 mm 11 mps 747 mmHg 68%
    18:00 +11°C° 0 mm 10 mps 747 mmHg 71%
    19:00 +11°C° 0 mm 9 mps 748 mmHg 71%
    20:00 +10°C° 0 mm 9 mps 748 mmHg 72%
    21:00 +10°C° 0 mm 8 mps 749 mmHg 73%
    22:00 +10°C° 0 mm 8 mps 749 mmHg 71%
    23:00 +9°C° 0 mm 7 mps 749 mmHg 70%
    Show more